Kuchera_Ratio
0.0 0.0 0.0 0.0 0.0 0.0 0.0 0.0 0.0 0.0 0.0 0.0 0.0 0.0 0.0 0.0 0.0 0.0 0.0 0.0 0.0 0.0 0.0 0.0 0.0 0.0 0.0 0.0 0.0 0.0 0.0 0.0 0.0 0.0 0.0 0.0 0.0 0.0 0.0 0.0 0.0 0.0 0.0
0.0 0.0 0.0 0.0 0.0 0.0 0.0 0.0 0.0 0.0 0.0 0.0 0.0 0.0 0.0 0.0 0.0 0.0 0.0 0.0 0.0 0.0 0.0 0.0 0.0 0.0 0.0 0.0 0.0 0.0 0.0 0.0 0.0 0.0 0.0 0.0 0.0 0.0 0.0 0.0 0.0 0.0 0.0
0.0 0.0 0.0 0.0 0.0 0.0 0.0 0.0 0.0 0.0 0.0 0.0 0.0 0.0 0.0 0.0 0.0 0.0 0.0 0.0 0.0 0.0 0.0 0.0 0.0 0.0 0.0 0.0 0.0 0.0 0.0 0.0 0.0 0.0 0.0 0.0 0.0 0.0 0.0 0.0 0.0 0.0 0.0
0.0 0.0 0.0 0.0 0.0 0.0 0.0 0.0 0.0 0.0 0.0 0.0 0.0 0.0 0.0 0.0 0.0 0.0 0.0 0.0 0.0 0.0 0.0 0.0 0.0 0.0 0.0 0.0 0.0 0.0 0.0 0.0 0.0 0.0 0.0 0.0 0.0 0.0 0.0 0.0 0.0 0.0 0.0
0.0 0.0 0.0 0.0 0.0 0.0 0.0 0.0 0.0 0.0 0.0 0.0 0.0 0.0 0.0 0.0 0.0 0.0 0.0 0.0 0.0 0.0 0.0 0.0 0.0 0.0 0.0 0.0 0.0 0.0 0.0 0.0 0.0 0.0 0.0 0.0 0.0 0.0 0.0 0.0 0.0 0.0 0.0
0.0 0.0 0.0 0.0 0.0 0.0 0.0 0.0 0.0 0.0 0.0 0.0 0.0 0.0 0.0 0.0 0.0 0.0 0.0 0.0 0.0 0.0 0.0 0.0 0.0 0.0 0.0 0.0 0.0 0.0 0.0 0.0 0.0 0.0 0.0 0.0 0.0 0.0 0.0 0.0 0.0 0.0 0.0
0.0 0.0 0.0 0.0 0.0 0.0 0.0 0.0 0.0 0.0 0.0 0.0 0.0 0.0 0.0 0.0 0.0 0.0 0.0 0.0 0.0 0.0 0.0 0.0 0.0 0.0 0.0 0.0 0.0 0.0 0.0 0.0 0.0 0.0 0.0 0.0 0.0 0.0 0.0 0.0 0.0 0.0 0.0
0.0 0.0 0.0 0.0 0.0 0.0 0.0 0.0 0.0 0.0 0.0 0.0 0.0 0.0 0.0 0.0 0.0 0.0 0.0 0.0 0.0 0.0 0.0 0.0 0.0 0.0 0.0 0.0 0.0 0.0 0.0 0.0 0.0 0.0 0.0 0.0 0.0 0.0 0.0 0.0 0.0 0.0 0.0
0.0 0.0 0.0 0.0 0.0 0.0 0.0 0.0 0.0 0.0 2.0 0.0 0.0 3.5 4.2 3.2 0.7 0.0 0.0 0.0 0.0 0.0 0.0 0.0 0.0 0.0 0.0 0.0 0.0 0.0 0.0 0.0 0.0 0.0 0.0 0.0 0.0 0.0 0.0 0.0 0.0 0.0 0.0
0.0 0.0 0.0 0.0 0.0 0.0 0.0 0.0 0.0 0.0 0.0 3.6 0.0 0.0 0.0 1.6 7.1 4.6 3.5 3.0 0.0 0.0 0.0 0.0 0.0 0.0 0.0 0.0 0.0 0.0 0.0 0.0 0.0 0.0 0.0 0.0 0.0 0.0 0.0 0.0 0.0 0.0 0.0
0.0 0.0 0.0 0.0 0.0 0.0 0.0 0.0 0.0 0.0 0.0 0.6 1.9 2.1 1.2 2.3 4.3 9.3 6.5 6.8 3.2 1.2 0.0 0.0 0.0 0.0 0.0 0.0 0.0 0.0 0.0 0.0 0.0 0.0 0.0 0.0 0.0 0.0 0.0 0.0 0.0 0.0 0.0
0.0 0.0 0.0 0.0 0.0 0.0 0.0 0.2 0.0 0.1 0.3 1.1 1.5 2.3 3.9 5.7 7.1 8.1 9.9 10.1 9.8 6.2 1.2 0.0 0.0 0.0 0.0 0.0 0.0 0.0 0.0 0.0 0.0 0.0 0.0 0.0 0.0 0.0 0.0 0.0 0.0 0.0 0.0
0.0 0.2 0.0 0.3 0.3 0.0 0.0 0.0 1.2 1.5 1.6 3.4 4.2 4.7 4.5 5.2 4.4 4.7 7.2 10.6 11.3 7.5 3.1 1.4 0.0 0.0 0.0 0.0 0.0 0.0 0.0 0.0 0.0 0.0 0.0 0.0 0.0 0.0 0.0 0.0 0.0 0.0 0.0
0.2 0.0 0.0 0.0 0.0 0.0 0.8 1.7 3.2 4.1 4.4 6.5 7.1 7.2 6.4 5.6 4.8 6.6 7.8 10.4 9.8 10.8 7.9 5.6 0.0 0.0 0.2 0.0 0.0 0.0 0.0 0.0 0.0 0.0 0.0 0.0 0.0 0.0 0.0 0.0 0.0 0.0 0.0
0.0 1.1 0.9 2.8 2.8 3.1 3.4 5.1 6.4 7.2 7.8 7.4 8.2 8.8 8.8 7.6 6.8 6.8 7.0 9.8 12.3 12.4 12.3 7.4 5.2 1.8 3.6 3.6 0.0 0.0 0.0 0.0 0.0 0.0 0.0 0.0 0.0 0.0 0.0 0.0 0.0 0.0 0.0
1.6 3.2 3.9 4.7 5.7 6.6 6.1 7.2 8.4 8.4 9.0 8.8 9.2 10.6 10.8 10.6 10.4 9.8 9.4 9.8 11.6 13.4 13.7 8.0 4.8 6.4 7.6 5.8 3.4 4.0 1.4 0.0 0.0 0.0 0.0 0.0 0.0 0.0 0.0 0.0 0.0 0.0 0.0
3.5 4.3 5.7 6.3 7.2 8.2 8.1 8.9 8.9 10.2 10.6 11.0 11.2 11.8 12.3 12.4 13.0 12.5 12.2 12.4 13.3 13.4 13.4 11.3 7.6 8.2 12.2 12.7 11.4 8.0 3.6 0.2 3.2 0.0 0.0 0.0 0.4 0.2 0.0 0.0 0.0 0.0 0.0
3.5 4.9 6.1 7.8 8.5 9.2 9.1 9.5 10.3 11.2 11.8 12.2 12.4 12.5 12.8 11.8 13.5 13.7 13.8 13.9 14.1 13.2 13.4 14.2 12.6 13.2 13.5 13.3 12.9 12.1 6.4 1.6 2.2 0.8 0.6 0.0 0.4 0.8 1.6 1.6 1.0 0.2 0.0
6.6 5.4 7.9 8.0 9.0 9.7 9.8 9.8 11.8 11.2 12.5 12.4 12.9 12.9 13.1 13.8 14.1 14.2 14.2 14.6 14.9 12.9 14.0 13.8 15.1 14.1 14.2 14.4 13.8 12.9 11.2 10.1 3.8 3.0 3.4 2.2 2.0 1.8 2.0 2.6 2.2 1.8 1.0
8.6 8.9 8.8 9.2 9.7 10.1 10.4 10.6 10.8 12.1 12.1 12.5 11.6 12.6 13.2 14.0 14.4 14.9 15.1 15.1 15.3 15.8 15.5 15.8 15.6 15.4 15.3 15.1 14.6 14.0 14.2 13.5 13.1 9.6 9.2 4.6 4.6 3.8 3.2 2.6 3.0 2.6 2.6
10.0 9.9 9.8 10.4 10.8 11.8 12.3 12.5 13.2 13.3 13.2 13.0 11.6 11.0 12.0 10.2 9.2 11.8 15.2 15.7 15.9 15.8 15.9 15.8 15.6 15.6 15.2 14.7 14.4 15.3 14.8 14.9 13.0 15.4 14.4 11.0 11.6 10.4 9.8 6.0 4.2 3.4 3.6
11.5 11.4 10.8 12.1 12.0 11.0 6.8 6.6 13.4 13.3 13.3 13.6 13.3 14.1 14.5 13.9 13.7 12.1 8.2 9.2 15.4 16.4 16.4 16.4 16.1 15.9 15.7 15.7 16.1 16.2 15.6 14.3 15.4 15.9 16.0 15.2 12.7 13.6 11.6 9.9 4.4 4.6 4.6
12.1 12.1 12.3 12.7 12.9 13.4 7.6 7.8 8.4 13.6 13.6 13.5 14.0 14.5 15.1 15.3 15.3 15.2 12.9 12.7 13.6 11.8 16.6 16.6 16.7 16.5 16.8 17.1 17.0 17.7 17.5 16.8 17.0 16.8 17.1 17.5 16.0 16.2 12.3 11.4 6.0 5.4 6.2
12.7 12.8 12.9 11.8 13.4 11.6 7.8 8.0 8.4 12.1 13.1 13.9 13.7 14.2 15.0 15.3 13.9 14.4 15.6 17.0 16.8 16.4 15.7 16.0 16.1 16.6 16.6 16.9 17.6 18.1 18.3 18.9 17.9 17.7 17.6 17.4 17.7 17.5 14.9 13.7 7.4 7.4 7.6
12.2 12.0 12.3 12.6 14.0 13.2 7.8 8.2 10.6 12.8 12.7 14.0 13.6 14.0 14.4 15.1 12.4 12.6 14.9 15.3 16.3 16.5 12.9 9.0 9.4 10.2 11.4 11.0 12.8 18.0 18.4 18.6 18.5 18.7 18.6 18.7 18.6 18.5 16.5 15.5 14.8 10.8 10.4
10.0 11.2 12.0 13.0 11.6 13.9 9.0 9.0 9.4 10.8 13.4 14.6 14.6 14.1 12.9 14.2 13.0 13.1 15.8 16.5 17.4 17.2 16.8 16.8 17.3 15.7 15.5 15.6 14.2 17.2 18.0 18.6 20.0 20.3 18.2 19.8 19.2 19.5 19.2 16.0 16.8 16.0 15.7